Time,TemperatureF,DewpointF,PressureIn,WindDirection,WindDirectionDegrees,WindSpeedMPH,WindSpeedGustMPH,Humidity,HourlyPrecipIn,Conditions,Clouds,dailyrainin,SoftwareType,DateUTC
2013-10-25 00:01:00,37.2,7.9,29.56,NW,304,2.7,2.7,29,0.00,,,0.00,VWS V13.01,2013-10-25 04:01:00,
2013-10-25 00:02:00,37.0,7.8,29.56,NW,312,2.2,3.1,29,0.00,,,0.00,VWS V13.01,2013-10-25 04:02:00,
2013-10-25 00:03:00,37.0,7.8,29.56,NW,312,2.2,3.1,29,0.00,,,0.00,VWS V13.01,2013-10-25 04:03:00,
2013-10-25 00:08:00,37.0,7.8,29.56,North,353,4.0,5.8,29,0.00,,,0.00,VWS V13.01,2013-10-25 04:08:00,
2013-10-25 00:13:00,37.0,7.8,29.56,NW,305,2.7,4.0,29,0.00,,,0.00,VWS V13.01,2013-10-25 04:13:00,
2013-10-25 00:18:00,37.0,7.8,29.56,NW,325,2.7,3.6,29,0.00,,,0.00,VWS V13.01,2013-10-25 04:18:00,
2013-10-25 00:23:00,37.2,7.9,29.56,NNW,329,2.2,3.1,29,0.00,,,0.00,VWS V13.01,2013-10-25 04:23:00,
2013-10-25 00:28:00,37.2,8.6,29.56,NNW,329,0.0,2.7,30,0.00,,,0.00,VWS V13.01,2013-10-25 04:28:00,
2013-10-25 00:33:00,37.2,8.6,29.56,NNW,329,0.0,2.7,30,0.00,,,0.00,VWS V13.01,2013-10-25 04:33:00,
2013-10-25 00:38:00,37.0,8.5,29.56,NNW,329,2.2,2.7,30,0.00,,,0.00,VWS V13.01,2013-10-25 04:38:00,
2013-10-25 00:43:00,37.0,8.5,29.56,NNW,329,0.0,2.7,30,0.00,,,0.00,VWS V13.01,2013-10-25 04:43:00,
2013-10-25 00:48:00,37.2,8.6,29.56,NNW,329,0.0,3.1,30,0.00,,,0.00,VWS V13.01,2013-10-25 04:48:00,
2013-10-25 00:53:00,37.2,8.6,29.56,North,353,4.0,4.0,30,0.00,,,0.00,VWS V13.01,2013-10-25 04:53:00,
2013-10-25 00:58:00,37.2,8.6,29.56,North,350,0.0,2.7,30,0.00,,,0.00,VWS V13.01,2013-10-25 04:58:00,
2013-10-25 01:03:00,37.2,8.6,29.56,North,353,0.0,0.0,30,0.00,,,0.00,VWS V13.01,2013-10-25 05:03:00,
2013-10-25 01:08:00,37.2,8.6,29.56,North,353,0.0,0.0,30,0.00,,,0.00,VWS V13.01,2013-10-25 05:08:00,
2013-10-25 01:13:00,37.4,8.1,29.56,North,353,0.0,0.0,29,0.00,,,0.00,VWS V13.01,2013-10-25 05:13:00,
2013-10-25 01:18:00,37.4,8.1,29.56,North,353,0.0,0.0,29,0.00,,,0.00,VWS V13.01,2013-10-25 05:18:00,
2013-10-25 01:23:00,37.4,8.8,29.56,North,353,0.0,0.0,30,0.00,,,0.00,VWS V13.01,2013-10-25 05:23:00,
2013-10-25 01:28:00,37.4,8.8,29.56,North,353,0.0,0.0,30,0.00,,,0.00,VWS V13.01,2013-10-25 05:28:00,
2013-10-25 01:33:00,37.4,8.8,29.56,North,353,0.0,0.0,30,0.00,,,0.00,VWS V13.01,2013-10-25 05:33:00,
2013-10-25 01:38:00,37.4,8.8,29.56,North,350,0.0,0.0,30,0.00,,,0.00,VWS V13.01,2013-10-25 05:38:00,
2013-10-25 01:43:00,37.4,8.8,29.56,North,353,0.0,0.0,30,0.00,,,0.00,VWS V13.01,2013-10-25 05:43:00,
2013-10-25 01:48:00,37.4,8.8,29.56,West,263,0.0,3.6,30,0.00,,,0.00,VWS V13.01,2013-10-25 05:48:00,
2013-10-25 01:53:00,37.4,8.8,29.56,West,265,0.0,2.7,30,0.00,,,0.00,VWS V13.01,2013-10-25 05:53:00,
2013-10-25 01:58:00,37.4,8.1,29.56,West,265,0.0,2.2,29,0.00,,,0.00,VWS V13.01,2013-10-25 05:58:00,
2013-10-25 02:03:00,37.6,8.2,29.56,West,270,0.0,2.7,29,0.00,,,0.00,VWS V13.01,2013-10-25 06:03:00,
2013-10-25 02:08:00,37.6,8.2,29.56,NW,311,3.1,3.1,29,0.00,,,0.00,VWS V13.01,2013-10-25 06:08:00,
2013-10-25 02:13:00,37.6,8.2,29.56,NW,313,2.2,3.1,29,0.00,,,0.00,VWS V13.01,2013-10-25 06:13:00,
2013-10-25 02:18:00,37.6,8.2,29.59,NW,306,2.7,3.6,29,0.00,,,0.00,VWS V13.01,2013-10-25 06:18:00,
2013-10-25 02:23:00,37.6,8.2,29.59,WNW,301,2.2,4.0,29,0.00,,,0.00,VWS V13.01,2013-10-25 06:23:00,
2013-10-25 02:28:00,37.4,8.1,29.59,WNW,297,0.0,2.7,29,0.00,,,0.00,VWS V13.01,2013-10-25 06:28:00,
2013-10-25 02:33:00,37.4,8.1,29.59,WNW,297,0.0,2.7,29,0.00,,,0.00,VWS V13.01,2013-10-25 06:33:00,
2013-10-25 02:38:00,37.4,8.1,29.59,NW,306,2.7,3.6,29,0.00,,,0.00,VWS V13.01,2013-10-25 06:38:00,
2013-10-25 02:43:00,37.4,8.1,29.59,NW,321,0.0,3.6,29,0.00,,,0.00,VWS V13.01,2013-10-25 06:43:00,
2013-10-25 02:48:00,37.4,8.8,29.59,NW,310,2.7,3.1,30,0.00,,,0.00,VWS V13.01,2013-10-25 06:48:00,
2013-10-25 02:53:00,37.4,8.8,29.59,NW,304,0.0,2.7,30,0.00,,,0.00,VWS V13.01,2013-10-25 06:53:00,
2013-10-25 02:58:00,37.4,8.8,29.59,NW,310,0.0,2.7,30,0.00,,,0.00,VWS V13.01,2013-10-25 06:58:00,
2013-10-25 03:03:00,37.4,8.8,29.59,NW,310,2.2,3.1,30,0.00,,,0.00,VWS V13.01,2013-10-25 07:03:00,
2013-10-25 03:08:00,37.4,8.8,29.59,WNW,300,2.7,2.7,30,0.00,,,0.00,VWS V13.01,2013-10-25 07:08:00,
2013-10-25 03:12:00,37.4,8.8,29.59,WNW,295,0.0,3.1,30,0.00,,,0.00,VWS V13.01,2013-10-25 07:12:00,
2013-10-25 03:17:00,37.4,8.8,29.59,WNW,302,0.0,3.1,30,0.00,,,0.00,VWS V13.01,2013-10-25 07:17:00,
2013-10-25 03:22:00,37.2,8.6,29.59,WNW,299,2.7,4.0,30,0.00,,,0.00,VWS V13.01,2013-10-25 07:22:00,
2013-10-25 03:27:00,37.2,8.6,29.59,WNW,289,2.2,4.0,30,0.00,,,0.00,VWS V13.01,2013-10-25 07:27:00,
2013-10-25 03:32:00,37.2,9.4,29.59,NW,320,2.7,3.6,31,0.00,,,0.00,VWS V13.01,2013-10-25 07:32:00,
2013-10-25 03:37:00,37.2,9.4,29.59,WNW,299,4.0,4.0,31,0.00,,,0.00,VWS V13.01,2013-10-25 07:37:00,
2013-10-25 03:42:00,37.0,9.2,29.59,NW,322,3.1,3.6,31,0.00,,,0.00,VWS V13.01,2013-10-25 07:42:00,
2013-10-25 03:47:00,37.0,9.2,29.59,NW,310,2.7,5.4,31,0.00,,,0.00,VWS V13.01,2013-10-25 07:47:00,
2013-10-25 03:52:00,37.0,9.2,29.59,NW,311,2.2,3.6,31,0.00,,,0.00,VWS V13.01,2013-10-25 07:52:00,
2013-10-25 03:57:00,36.9,9.8,29.59,NW,325,2.7,4.0,32,0.00,,,0.00,VWS V13.01,2013-10-25 07:57:00,
2013-10-25 04:02:00,36.7,9.6,29.59,NW,309,2.2,2.7,32,0.00,,,0.00,VWS V13.01,2013-10-25 08:02:00,
2013-10-25 04:07:00,36.7,9.6,29.59,NNW,333,2.7,2.7,32,0.00,,,0.00,VWS V13.01,2013-10-25 08:07:00,
2013-10-25 04:12:00,36.3,9.3,29.59,NNW,336,2.2,3.1,32,0.00,,,0.00,VWS V13.01,2013-10-25 08:12:00,
2013-10-25 04:17:00,36.1,9.8,29.59,NNW,336,0.0,3.1,33,0.00,,,0.00,VWS V13.01,2013-10-25 08:17:00,
2013-10-25 04:22:00,36.0,9.7,29.59,NW,318,2.7,3.1,33,0.00,,,0.00,VWS V13.01,2013-10-25 08:22:00,
2013-10-25 04:27:00,35.8,10.2,29.59,NNW,338,3.6,3.6,34,0.00,,,0.00,VWS V13.01,2013-10-25 08:27:00,
2013-10-25 04:32:00,35.8,11.4,29.59,NNW,338,3.1,3.1,36,0.00,,,0.00,VWS V13.01,2013-10-25 08:32:00,
2013-10-25 04:37:00,35.6,11.9,29.59,NW,324,2.2,3.1,37,0.00,,,0.00,VWS V13.01,2013-10-25 08:37:00,
2013-10-25 04:42:00,35.4,11.8,29.59,NW,324,2.7,3.1,37,0.00,,,0.00,VWS V13.01,2013-10-25 08:42:00,
2013-10-25 04:47:00,35.2,12.2,29.59,NNW,330,2.7,3.1,38,0.00,,,0.00,VWS V13.01,2013-10-25 08:47:00,
2013-10-25 04:52:00,35.1,12.6,29.59,NNW,330,2.7,2.7,39,0.00,,,0.00,VWS V13.01,2013-10-25 08:52:00,
2013-10-25 04:57:00,35.1,12.6,29.59,NNW,337,3.6,4.0,39,0.00,,,0.00,VWS V13.01,2013-10-25 08:57:00,
2013-10-25 05:02:00,34.9,13.0,29.62,North,353,3.1,4.0,40,0.00,,,0.00,VWS V13.01,2013-10-25 09:02:00,
2013-10-25 05:07:00,34.7,12.9,29.62,NNW,330,2.7,3.1,40,0.00,,,0.00,VWS V13.01,2013-10-25 09:07:00,
2013-10-25 05:12:00,34.5,12.7,29.62,NW,318,2.2,3.1,40,0.00,,,0.00,VWS V13.01,2013-10-25 09:12:00,
2013-10-25 05:17:00,34.5,12.7,29.62,NNW,345,2.2,3.1,40,0.00,,,0.00,VWS V13.01,2013-10-25 09:17:00,
2013-10-25 05:22:00,34.3,12.5,29.62,North,350,2.7,3.1,40,0.00,,,0.00,VWS V13.01,2013-10-25 09:22:00,
2013-10-25 05:27:00,34.2,12.4,29.62,North,350,0.0,3.1,40,0.00,,,0.00,VWS V13.01,2013-10-25 09:27:00,
2013-10-25 05:32:00,34.0,12.2,29.62,North,349,2.2,3.1,40,0.00,,,0.00,VWS V13.01,2013-10-25 09:32:00,
2013-10-25 05:37:00,33.8,12.1,29.62,North,350,2.2,2.2,40,0.00,,,0.00,VWS V13.01,2013-10-25 09:37:00,
2013-10-25 05:42:00,33.6,12.4,29.62,North,350,0.0,0.0,41,0.00,,,0.00,VWS V13.01,2013-10-25 09:42:00,
2013-10-25 05:47:00,33.4,12.3,29.62,North,350,0.0,2.2,41,0.00,,,0.00,VWS V13.01,2013-10-25 09:47:00,
2013-10-25 05:52:00,33.3,12.1,29.62,North,350,0.0,2.7,41,0.00,,,0.00,VWS V13.01,2013-10-25 09:52:00,
2013-10-25 05:57:00,33.3,12.1,29.62,North,350,0.0,2.2,41,0.00,,,0.00,VWS V13.01,2013-10-25 09:57:00,
2013-10-25 06:02:00,33.1,12.0,29.62,North,350,2.2,2.7,41,0.00,,,0.00,VWS V13.01,2013-10-25 10:02:00,
2013-10-25 06:07:00,32.9,11.8,29.62,North,350,2.2,2.7,41,0.00,,,0.00,VWS V13.01,2013-10-25 10:07:00,
2013-10-25 06:12:00,32.7,12.2,29.62,North,350,2.7,3.6,42,0.00,,,0.00,VWS V13.01,2013-10-25 10:12:00,
2013-10-25 06:17:00,32.7,12.2,29.65,North,350,2.7,3.1,42,0.00,,,0.00,VWS V13.01,2013-10-25 10:17:00,
2013-10-25 06:22:00,32.7,12.7,29.65,North,350,2.2,3.1,43,0.00,,,0.00,VWS V13.01,2013-10-25 10:22:00,
2013-10-25 06:27:00,32.7,12.7,29.65,North,350,0.0,2.7,43,0.00,,,0.00,VWS V13.01,2013-10-25 10:27:00,
2013-10-25 06:32:00,32.5,12.5,29.65,North,350,0.0,2.7,43,0.00,,,0.00,VWS V13.01,2013-10-25 10:32:00,
2013-10-25 06:37:00,32.4,12.4,29.65,North,350,0.0,2.7,43,0.00,,,0.00,VWS V13.01,2013-10-25 10:37:00,
2013-10-25 06:42:00,32.4,12.9,29.65,North,350,0.0,2.2,44,0.00,,,0.00,VWS V13.01,2013-10-25 10:42:00,
2013-10-25 06:47:00,32.2,12.7,29.65,North,350,0.0,2.2,44,0.00,,,0.00,VWS V13.01,2013-10-25 10:47:00,
2013-10-25 06:52:00,32.2,12.7,29.65,North,350,2.2,2.2,44,0.00,,,0.00,VWS V13.01,2013-10-25 10:52:00,
2013-10-25 06:57:00,32.0,12.6,29.65,North,350,2.2,2.7,44,0.00,,,0.00,VWS V13.01,2013-10-25 10:57:00,
2013-10-25 07:02:00,32.0,13.1,29.65,North,350,0.0,2.2,45,0.00,,,0.00,VWS V13.01,2013-10-25 11:02:00,
2013-10-25 07:07:00,32.0,13.1,29.65,North,350,0.0,0.0,45,0.00,,,0.00,VWS V13.01,2013-10-25 11:07:00,
2013-10-25 07:12:00,31.8,12.9,29.65,North,350,0.0,0.0,45,0.00,,,0.00,VWS V13.01,2013-10-25 11:12:00,
2013-10-25 07:17:00,31.6,12.8,29.65,North,350,0.0,2.2,45,0.00,,,0.00,VWS V13.01,2013-10-25 11:17:00,
2013-10-25 07:22:00,31.5,13.1,29.65,North,350,2.2,2.7,46,0.00,,,0.00,VWS V13.01,2013-10-25 11:22:00,
2013-10-25 07:27:00,31.5,13.1,29.65,North,350,2.2,2.7,46,0.00,,,0.00,VWS V13.01,2013-10-25 11:27:00,
2013-10-25 07:32:00,31.3,12.9,29.65,North,350,0.0,0.0,46,0.00,,,0.00,VWS V13.01,2013-10-25 11:32:00,
2013-10-25 07:37:00,31.1,12.8,29.65,North,350,2.2,2.2,46,0.00,,,0.00,VWS V13.01,2013-10-25 11:37:00,
2013-10-25 07:42:00,31.1,12.8,29.65,NNW,348,0.0,2.7,46,0.00,,,0.00,VWS V13.01,2013-10-25 11:42:00,
2013-10-25 07:47:00,31.1,13.2,29.68,North,350,0.0,2.2,47,0.00,,,0.00,VWS V13.01,2013-10-25 11:47:00,
2013-10-25 07:52:00,30.9,13.1,29.68,North,350,0.0,0.0,47,0.00,,,0.00,VWS V13.01,2013-10-25 11:52:00,
2013-10-25 07:57:00,30.7,12.4,29.68,NNW,348,0.0,0.0,46,0.00,,,0.00,VWS V13.01,2013-10-25 11:57:00,
2013-10-25 08:02:00,30.4,12.1,29.68,NNW,342,0.0,0.0,46,0.00,,,0.00,VWS V13.01,2013-10-25 12:02:00,
2013-10-25 08:07:00,30.2,12.4,29.68,SSE,164,0.0,0.0,47,0.00,,,0.00,VWS V13.01,2013-10-25 12:07:00,
2013-10-25 08:12:00,30.2,12.4,29.68,South,173,0.0,0.0,47,0.00,,,0.00,VWS V13.01,2013-10-25 12:12:00,
2013-10-25 08:17:00,30.2,12.4,29.68,South,173,0.0,0.0,47,0.00,,,0.00,VWS V13.01,2013-10-25 12:17:00,
2013-10-25 08:22:00,30.2,12.4,29.68,South,173,0.0,0.0,47,0.00,,,0.00,VWS V13.01,2013-10-25 12:22:00,
2013-10-25 08:27:00,30.4,12.6,29.68,South,173,0.0,0.0,47,0.00,,,0.00,VWS V13.01,2013-10-25 12:27:00,
2013-10-25 08:32:00,30.6,12.7,29.68,South,173,0.0,0.0,47,0.00,,,0.00,VWS V13.01,2013-10-25 12:32:00,
2013-10-25 08:37:00,30.9,13.1,29.68,South,173,0.0,0.0,47,0.00,,,0.00,VWS V13.01,2013-10-25 12:37:00,
2013-10-25 08:42:00,31.1,13.7,29.68,WSW,238,2.2,2.2,48,0.00,,,0.00,VWS V13.01,2013-10-25 12:42:00,
2013-10-25 08:47:00,31.5,14.1,29.68,WNW,294,2.7,3.1,48,0.00,,,0.00,VWS V13.01,2013-10-25 12:47:00,
2013-10-25 08:52:00,31.8,14.4,29.68,WNW,294,0.0,2.7,48,0.00,,,0.00,VWS V13.01,2013-10-25 12:52:00,
2013-10-25 08:57:00,32.2,14.7,29.68,NNW,339,0.0,3.1,48,0.00,,,0.00,VWS V13.01,2013-10-25 12:57:00,
2013-10-25 09:02:00,32.5,15.0,29.71,WNW,293,3.1,3.1,48,0.00,,,0.00,VWS V13.01,2013-10-25 13:02:00,
2013-10-25 09:07:00,32.7,15.2,29.71,NNW,329,0.0,3.6,48,0.00,,,0.00,VWS V13.01,2013-10-25 13:07:00,
2013-10-25 09:12:00,32.9,15.4,29.71,NNW,338,3.6,4.0,48,0.00,,,0.00,VWS V13.01,2013-10-25 13:12:00,
2013-10-25 09:17:00,32.9,15.4,29.71,North,350,2.7,4.0,48,0.00,,,0.00,VWS V13.01,2013-10-25 13:17:00,
2013-10-25 09:22:00,33.1,15.5,29.71,North,350,3.1,3.1,48,0.00,,,0.00,VWS V13.01,2013-10-25 13:22:00,
2013-10-25 09:27:00,33.4,15.4,29.71,North,350,2.7,3.6,47,0.00,,,0.00,VWS V13.01,2013-10-25 13:27:00,
2013-10-25 09:32:00,33.6,15.1,29.71,SW,223,3.1,3.1,46,0.00,,,0.00,VWS V13.01,2013-10-25 13:32:00,
2013-10-25 09:37:00,34.0,14.4,29.71,SW,226,2.7,3.6,44,0.00,,,0.00,VWS V13.01,2013-10-25 13:37:00,
2013-10-25 09:42:00,34.3,14.7,29.71,SSE,167,2.7,4.0,44,0.00,,,0.00,VWS V13.01,2013-10-25 13:42:00,
2013-10-25 09:47:00,34.9,15.2,29.71,WNW,295,4.0,5.4,44,0.00,,,0.00,VWS V13.01,2013-10-25 13:47:00,
2013-10-25 09:52:00,35.4,15.7,29.71,SSW,213,2.7,4.9,44,0.00,,,0.00,VWS V13.01,2013-10-25 13:52:00,
2013-10-25 09:57:00,35.8,15.5,29.71,WNW,299,5.8,5.8,43,0.00,,,0.00,VWS V13.01,2013-10-25 13:57:00,
2013-10-25 10:02:00,36.1,15.3,29.71,NW,304,0.0,5.4,42,0.00,,,0.00,VWS V13.01,2013-10-25 14:02:00,
2013-10-25 10:07:00,36.3,14.9,29.71,WNW,297,5.8,6.3,41,0.00,,,0.00,VWS V13.01,2013-10-25 14:07:00,
2013-10-25 10:12:00,36.3,11.3,29.71,WNW,303,5.8,6.3,35,0.00,,,0.00,VWS V13.01,2013-10-25 14:12:00,
2013-10-25 10:17:00,36.5,9.5,29.71,West,262,3.6,4.9,32,0.00,,,0.00,VWS V13.01,2013-10-25 14:17:00,
2013-10-25 10:22:00,36.9,9.1,29.71,North,0,4.9,5.4,31,0.00,,,0.00,VWS V13.01,2013-10-25 14:22:00,
2013-10-25 10:27:00,37.2,8.6,29.71,WSW,242,4.9,5.4,30,0.00,,,0.00,VWS V13.01,2013-10-25 14:27:00,
2013-10-25 10:32:00,37.4,8.1,29.74,WSW,239,5.8,5.8,29,0.00,,,0.00,VWS V13.01,2013-10-25 14:32:00,
2013-10-25 10:37:00,37.6,8.2,29.74,WSW,239,5.4,5.8,29,0.00,,,0.00,VWS V13.01,2013-10-25 14:37:00,
2013-10-25 10:42:00,37.9,6.1,29.74,WSW,240,3.6,5.8,26,0.00,,,0.00,VWS V13.01,2013-10-25 14:42:00,
2013-10-25 10:47:00,38.3,4.7,29.74,WSW,252,5.8,5.8,24,0.00,,,0.00,VWS V13.01,2013-10-25 14:47:00,
2013-10-25 10:52:00,38.7,5.0,29.74,WNW,286,4.0,5.4,24,0.00,,,0.00,VWS V13.01,2013-10-25 14:52:00,
2013-10-25 10:57:00,38.8,2.3,29.74,WNW,290,5.4,6.3,21,0.00,,,0.00,VWS V13.01,2013-10-25 14:57:00,
2013-10-25 11:02:00,38.8,2.3,29.74,SW,236,4.9,4.9,21,0.00,,,0.00,VWS V13.01,2013-10-25 15:02:00,
2013-10-25 11:07:00,39.4,2.7,29.74,WSW,237,5.4,5.4,21,0.00,,,0.00,VWS V13.01,2013-10-25 15:07:00,
2013-10-25 11:12:00,39.7,3.0,29.74,WNW,301,4.5,4.5,21,0.00,,,0.00,VWS V13.01,2013-10-25 15:12:00,
2013-10-25 11:17:00,39.7,3.0,29.71,NNW,335,3.6,4.9,21,0.00,,,0.00,VWS V13.01,2013-10-25 15:17:00,
2013-10-25 11:22:00,40.1,3.3,29.71,SW,228,3.1,4.0,21,0.00,,,0.00,VWS V13.01,2013-10-25 15:22:00,
2013-10-25 11:27:00,40.5,0.3,29.71,West,263,3.1,4.9,18,0.00,,,0.00,VWS V13.01,2013-10-25 15:27:00,
2013-10-25 11:32:00,40.5,0.3,29.71,SW,224,0.0,4.0,18,0.00,,,0.00,VWS V13.01,2013-10-25 15:32:00,
2013-10-25 11:37:00,41.0,0.8,29.71,WNW,297,7.6,7.6,18,0.00,,,0.00,VWS V13.01,2013-10-25 15:37:00,
2013-10-25 11:42:00,41.2,0.9,29.71,North,1,3.1,3.6,18,0.00,,,0.00,VWS V13.01,2013-10-25 15:42:00,
2013-10-25 11:47:00,41.5,1.2,29.71,NE,43,3.1,4.9,18,0.00,,,0.00,VWS V13.01,2013-10-25 15:47:00,
2013-10-25 11:52:00,42.1,1.6,29.71,NW,314,3.1,4.9,18,0.00,,,0.00,VWS V13.01,2013-10-25 15:52:00,
2013-10-25 11:57:00,41.7,1.4,29.71,NW,322,0.0,4.0,18,0.00,,,0.00,VWS V13.01,2013-10-25 15:57:00,
2013-10-25 12:02:00,42.1,1.6,29.71,SW,236,0.0,3.6,18,0.00,,,0.00,VWS V13.01,2013-10-25 16:02:00,
2013-10-25 12:07:00,42.4,1.9,29.71,NNW,327,2.7,4.0,18,0.00,,,0.00,VWS V13.01,2013-10-25 16:07:00,
2013-10-25 12:12:00,43.2,2.5,29.71,North,0,3.1,5.8,18,0.00,,,0.00,VWS V13.01,2013-10-25 16:12:00,
2013-10-25 12:17:00,43.2,2.5,29.71,NNW,339,3.6,5.4,18,0.00,,,0.00,VWS V13.01,2013-10-25 16:17:00,
2013-10-25 12:22:00,43.3,2.7,29.71,NW,317,3.1,5.8,18,0.00,,,0.00,VWS V13.01,2013-10-25 16:22:00,
2013-10-25 12:27:00,43.5,-1.1,29.71,SW,223,4.0,7.2,15,0.00,,,0.00,VWS V13.01,2013-10-25 16:27:00,
2013-10-25 12:32:00,44.1,-0.6,29.71,NNW,330,7.6,7.6,15,0.00,,,0.00,VWS V13.01,2013-10-25 16:32:00,
2013-10-25 12:37:00,44.1,-0.6,29.71,WNW,285,2.7,5.4,15,0.00,,,0.00,VWS V13.01,2013-10-25 16:37:00,
2013-10-25 12:42:00,43.9,-0.8,29.71,NW,316,2.2,4.0,15,0.00,,,0.00,VWS V13.01,2013-10-25 16:42:00,
2013-10-25 12:47:00,43.5,-1.1,29.71,NW,316,3.6,4.0,15,0.00,,,0.00,VWS V13.01,2013-10-25 16:47:00,
2013-10-25 12:52:00,43.2,-1.4,29.71,NNW,329,2.7,4.0,15,0.00,,,0.00,VWS V13.01,2013-10-25 16:52:00,
2013-10-25 12:57:00,43.3,-1.2,29.71,NNW,338,3.1,4.0,15,0.00,,,0.00,VWS V13.01,2013-10-25 16:57:00,
2013-10-25 13:02:00,43.7,-0.9,29.71,SSW,196,2.7,4.9,15,0.00,,,0.00,VWS V13.01,2013-10-25 17:02:00,
2013-10-25 13:07:00,44.2,-0.5,29.71,SE,138,0.0,2.2,15,0.00,,,0.00,VWS V13.01,2013-10-25 17:07:00,
2013-10-25 13:12:00,45.1,0.3,29.71,WSW,253,2.7,6.3,15,0.00,,,0.00,VWS V13.01,2013-10-25 17:12:00,
2013-10-25 13:17:00,45.1,0.3,29.71,NW,304,3.6,4.0,15,0.00,,,0.00,VWS V13.01,2013-10-25 17:17:00,
2013-10-25 13:22:00,44.8,0.0,29.71,North,353,3.1,3.6,15,0.00,,,0.00,VWS V13.01,2013-10-25 17:22:00,
2013-10-25 13:27:00,44.2,-0.5,29.71,WNW,303,0.0,3.1,15,0.00,,,0.00,VWS V13.01,2013-10-25 17:27:00,
2013-10-25 13:32:00,44.2,-0.5,29.71,NNW,338,6.3,10.1,15,0.00,,,0.00,VWS V13.01,2013-10-25 17:32:00,
2013-10-25 13:37:00,44.1,-0.6,29.71,NW,311,2.7,6.7,15,0.00,,,0.00,VWS V13.01,2013-10-25 17:37:00,
2013-10-25 13:42:00,44.1,-0.6,29.71,West,278,3.6,6.3,15,0.00,,,0.00,VWS V13.01,2013-10-25 17:42:00,
2013-10-25 13:47:00,44.4,-0.3,29.68,North,349,3.1,4.0,15,0.00,,,0.00,VWS V13.01,2013-10-25 17:47:00,
2013-10-25 13:52:00,44.8,0.0,29.68,North,357,5.8,5.8,15,0.00,,,0.00,VWS V13.01,2013-10-25 17:52:00,
2013-10-25 13:57:00,45.1,0.3,29.68,NW,304,4.0,4.0,15,0.00,,,0.00,VWS V13.01,2013-10-25 17:57:00,
2013-10-25 14:02:00,45.0,0.1,29.68,NNW,341,0.0,6.3,15,0.00,,,0.00,VWS V13.01,2013-10-25 18:02:00,
2013-10-25 14:07:00,44.8,0.0,29.68,NW,321,4.0,5.8,15,0.00,,,0.00,VWS V13.01,2013-10-25 18:07:00,
2013-10-25 14:12:00,44.8,0.0,29.68,WNW,299,5.4,5.4,15,0.00,,,0.00,VWS V13.01,2013-10-25 18:12:00,
2013-10-25 14:17:00,45.1,0.3,29.68,NW,326,4.9,5.4,15,0.00,,,0.00,VWS V13.01,2013-10-25 18:17:00,
2013-10-25 14:22:00,45.5,0.6,29.68,West,275,0.0,4.9,15,0.00,,,0.00,VWS V13.01,2013-10-25 18:22:00,
2013-10-25 14:27:00,45.5,0.6,29.68,NNW,340,4.0,6.3,15,0.00,,,0.00,VWS V13.01,2013-10-25 18:27:00,
2013-10-25 14:32:00,45.5,0.6,29.68,WNW,286,3.1,5.8,15,0.00,,,0.00,VWS V13.01,2013-10-25 18:32:00,
2013-10-25 14:37:00,46.4,-0.2,29.68,WNW,290,4.5,5.4,14,0.00,,,0.00,VWS V13.01,2013-10-25 18:37:00,
2013-10-25 14:42:00,46.9,0.2,29.68,SW,226,4.0,4.0,14,0.00,,,0.00,VWS V13.01,2013-10-25 18:42:00,
2013-10-25 14:47:00,47.5,0.7,29.68,SW,226,2.2,2.2,14,0.00,,,0.00,VWS V13.01,2013-10-25 18:47:00,
2013-10-25 14:52:00,48.4,1.4,29.68,NW,319,2.7,6.7,14,0.00,,,0.00,VWS V13.01,2013-10-25 18:52:00,
2013-10-25 14:57:00,47.8,1.0,29.68,SW,235,6.3,6.7,14,0.00,,,0.00,VWS V13.01,2013-10-25 18:57:00,
2013-10-25 15:02:00,47.7,0.8,29.65,SW,228,2.7,4.9,14,0.00,,,0.00,VWS V13.01,2013-10-25 19:02:00,
2013-10-25 15:07:00,48.2,1.2,29.65,WSW,247,0.0,4.0,14,0.00,,,0.00,VWS V13.01,2013-10-25 19:07:00,
2013-10-25 15:12:00,48.4,1.4,29.65,NW,319,4.0,5.4,14,0.00,,,0.00,VWS V13.01,2013-10-25 19:12:00,
2013-10-25 15:17:00,48.2,1.2,29.65,SW,225,3.1,5.4,14,0.00,,,0.00,VWS V13.01,2013-10-25 19:17:00,
2013-10-25 15:22:00,48.6,1.5,29.65,WSW,237,5.4,8.1,14,0.00,,,0.00,VWS V13.01,2013-10-25 19:22:00,
2013-10-25 15:27:00,48.4,1.4,29.65,SW,235,3.6,9.2,14,0.00,,,0.00,VWS V13.01,2013-10-25 19:27:00,
2013-10-25 15:32:00,48.6,1.5,29.65,West,261,3.6,6.3,14,0.00,,,0.00,VWS V13.01,2013-10-25 19:32:00,
2013-10-25 15:37:00,48.7,1.7,29.65,SW,219,4.0,4.0,14,0.00,,,0.00,VWS V13.01,2013-10-25 19:37:00,
2013-10-25 15:42:00,48.6,1.5,29.65,SW,233,0.0,6.3,14,0.00,,,0.00,VWS V13.01,2013-10-25 19:42:00,
2013-10-25 15:47:00,48.4,1.4,29.65,SSW,201,3.6,4.9,14,0.00,,,0.00,VWS V13.01,2013-10-25 19:47:00,
2013-10-25 15:52:00,48.6,1.5,29.65,South,171,7.6,7.6,14,0.00,,,0.00,VWS V13.01,2013-10-25 19:52:00,
2013-10-25 15:57:00,48.6,1.5,29.65,SSE,161,2.7,5.4,14,0.00,,,0.00,VWS V13.01,2013-10-25 19:57:00,
2013-10-25 16:02:00,48.4,1.4,29.65,WSW,239,5.8,5.8,14,0.00,,,0.00,VWS V13.01,2013-10-25 20:02:00,
2013-10-25 16:07:00,48.6,1.5,29.65,SE,129,0.0,3.6,14,0.00,,,0.00,VWS V13.01,2013-10-25 20:07:00,
2013-10-25 16:12:00,49.1,2.0,29.65,WSW,239,4.0,10.5,14,0.00,,,0.00,VWS V13.01,2013-10-25 20:12:00,
2013-10-25 16:17:00,48.7,1.7,29.65,SSW,212,5.4,8.7,14,0.00,,,0.00,VWS V13.01,2013-10-25 20:17:00,
2013-10-25 16:22:00,48.6,1.5,29.65,SSW,213,5.8,6.3,14,0.00,,,0.00,VWS V13.01,2013-10-25 20:22:00,
2013-10-25 16:27:00,48.7,1.7,29.65,WSW,244,3.6,6.3,14,0.00,,,0.00,VWS V13.01,2013-10-25 20:27:00,
2013-10-25 16:32:00,48.7,1.7,29.65,SSW,196,5.8,5.8,14,0.00,,,0.00,VWS V13.01,2013-10-25 20:32:00,
2013-10-25 16:37:00,48.9,1.8,29.65,WSW,242,3.1,6.3,14,0.00,,,0.00,VWS V13.01,2013-10-25 20:37:00,
2013-10-25 16:42:00,48.9,1.8,29.65,NNW,329,4.9,4.9,14,0.00,,,0.00,VWS V13.01,2013-10-25 20:42:00,
2013-10-25 16:47:00,49.1,2.0,29.65,SW,233,0.0,2.7,14,0.00,,,0.00,VWS V13.01,2013-10-25 20:47:00,
2013-10-25 16:52:00,50.0,2.7,29.65,NNW,342,0.0,2.2,14,0.00,,,0.00,VWS V13.01,2013-10-25 20:52:00,
2013-10-25 16:57:00,50.2,2.8,29.65,WNW,290,3.6,5.4,14,0.00,,,0.00,VWS V13.01,2013-10-25 20:57:00,
2013-10-25 17:02:00,49.3,2.1,29.65,WNW,284,3.1,4.9,14,0.00,,,0.00,VWS V13.01,2013-10-25 21:02:00,
2013-10-25 17:07:00,49.1,2.0,29.65,WSW,252,3.6,6.3,14,0.00,,,0.00,VWS V13.01,2013-10-25 21:07:00,
2013-10-25 17:12:00,49.1,2.0,29.65,WSW,247,2.2,3.1,14,0.00,,,0.00,VWS V13.01,2013-10-25 21:12:00,
2013-10-25 17:17:00,49.1,2.0,29.65,WSW,240,3.1,4.9,14,0.00,,,0.00,VWS V13.01,2013-10-25 21:17:00,
2013-10-25 17:22:00,49.1,2.0,29.65,SW,230,0.0,4.0,14,0.00,,,0.00,VWS V13.01,2013-10-25 21:22:00,
2013-10-25 17:27:00,48.9,1.8,29.65,SSW,205,3.1,3.6,14,0.00,,,0.00,VWS V13.01,2013-10-25 21:27:00,
2013-10-25 17:32:00,49.3,2.1,29.62,SW,235,4.0,5.8,14,0.00,,,0.00,VWS V13.01,2013-10-25 21:32:00,
2013-10-25 17:37:00,49.1,2.0,29.62,WNW,288,0.0,2.2,14,0.00,,,0.00,VWS V13.01,2013-10-25 21:37:00,
2013-10-25 17:42:00,49.1,2.0,29.62,SW,226,3.1,4.0,14,0.00,,,0.00,VWS V13.01,2013-10-25 21:42:00,
2013-10-25 17:47:00,48.9,1.8,29.62,West,276,2.7,4.9,14,0.00,,,0.00,VWS V13.01,2013-10-25 21:47:00,
2013-10-25 17:52:00,48.7,1.7,29.62,WSW,237,2.2,5.8,14,0.00,,,0.00,VWS V13.01,2013-10-25 21:52:00,
2013-10-25 17:57:00,48.7,1.7,29.62,WSW,256,0.0,2.7,14,0.00,,,0.00,VWS V13.01,2013-10-25 21:57:00,
2013-10-25 18:02:00,48.7,1.7,29.62,NW,321,4.9,5.4,14,0.00,,,0.00,VWS V13.01,2013-10-25 22:02:00,
2013-10-25 18:07:00,48.0,1.1,29.62,NW,325,4.5,4.5,14,0.00,,,0.00,VWS V13.01,2013-10-25 22:07:00,
2013-10-25 18:12:00,48.0,1.1,29.62,NW,325,0.0,2.2,14,0.00,,,0.00,VWS V13.01,2013-10-25 22:12:00,
2013-10-25 18:17:00,48.2,1.2,29.62,NW,325,3.1,3.1,14,0.00,,,0.00,VWS V13.01,2013-10-25 22:17:00,
2013-10-25 18:22:00,48.0,1.1,29.62,NW,325,0.0,2.2,14,0.00,,,0.00,VWS V13.01,2013-10-25 22:22:00,
2013-10-25 18:27:00,47.8,1.0,29.62,NW,325,0.0,2.2,14,0.00,,,0.00,VWS V13.01,2013-10-25 22:27:00,
2013-10-25 18:32:00,47.7,0.8,29.62,NW,325,0.0,0.0,14,0.00,,,0.00,VWS V13.01,2013-10-25 22:32:00,
2013-10-25 18:37:00,47.3,0.5,29.62,NW,325,0.0,0.0,14,0.00,,,0.00,VWS V13.01,2013-10-25 22:37:00,
2013-10-25 18:42:00,46.8,0.1,29.62,NW,325,0.0,0.0,14,0.00,,,0.00,VWS V13.01,2013-10-25 22:42:00,
2013-10-25 18:47:00,46.0,1.0,29.62,NW,325,0.0,0.0,15,0.00,,,0.00,VWS V13.01,2013-10-25 22:47:00,
2013-10-25 18:52:00,45.0,0.1,29.62,NW,325,0.0,0.0,15,0.00,,,0.00,VWS V13.01,2013-10-25 22:52:00,
2013-10-25 18:57:00,44.1,-0.6,29.62,NW,325,0.0,0.0,15,0.00,,,0.00,VWS V13.01,2013-10-25 22:57:00,
2013-10-25 19:02:00,43.2,-1.4,29.62,NW,325,0.0,0.0,15,0.00,,,0.00,VWS V13.01,2013-10-25 23:02:00,
2013-10-25 19:07:00,42.4,-0.6,29.62,NW,325,0.0,0.0,16,0.00,,,0.00,VWS V13.01,2013-10-25 23:07:00,
2013-10-25 19:12:00,42.1,-0.9,29.62,NW,325,0.0,0.0,16,0.00,,,0.00,VWS V13.01,2013-10-25 23:12:00,
2013-10-25 19:17:00,41.5,-1.3,29.62,NW,325,0.0,0.0,16,0.00,,,0.00,VWS V13.01,2013-10-25 23:17:00,
2013-10-25 19:22:00,40.6,-2.0,29.62,NW,325,0.0,0.0,16,0.00,,,0.00,VWS V13.01,2013-10-25 23:22:00,
2013-10-25 19:27:00,40.3,-2.3,29.62,NW,325,0.0,0.0,16,0.00,,,0.00,VWS V13.01,2013-10-25 23:27:00,
2013-10-25 19:32:00,39.6,-2.9,29.62,NW,325,0.0,0.0,16,0.00,,,0.00,VWS V13.01,2013-10-25 23:32:00,
2013-10-25 19:37:00,39.0,-3.4,29.62,NW,325,0.0,0.0,16,0.00,,,0.00,VWS V13.01,2013-10-25 23:37:00,
2013-10-25 19:42:00,38.7,-3.7,29.62,NW,325,0.0,0.0,16,0.00,,,0.00,VWS V13.01,2013-10-25 23:42:00,
2013-10-25 19:47:00,38.5,-3.8,29.62,NW,325,0.0,0.0,16,0.00,,,0.00,VWS V13.01,2013-10-25 23:47:00,
2013-10-25 19:52:00,38.1,-4.1,29.62,NW,325,0.0,0.0,16,0.00,,,0.00,VWS V13.01,2013-10-25 23:52:00,
2013-10-25 19:57:00,37.8,-4.4,29.62,NW,325,0.0,0.0,16,0.00,,,0.00,VWS V13.01,2013-10-25 23:57:00,
2013-10-25 20:02:00,37.4,-4.7,29.62,NW,325,0.0,0.0,16,0.00,,,0.00,VWS V13.01,2013-10-26 00:02:00,
2013-10-25 20:07:00,37.0,-3.7,29.62,NW,325,0.0,0.0,17,0.00,,,0.00,VWS V13.01,2013-10-26 00:07:00,
2013-10-25 20:12:00,37.0,-1.4,29.62,NW,325,0.0,0.0,19,0.00,,,0.00,VWS V13.01,2013-10-26 00:12:00,
2013-10-25 20:17:00,36.7,-1.7,29.62,NW,325,0.0,0.0,19,0.00,,,0.00,VWS V13.01,2013-10-26 00:17:00,
2013-10-25 20:22:00,36.3,-2.0,29.62,NW,325,0.0,0.0,19,0.00,,,0.00,VWS V13.01,2013-10-26 00:22:00,
2013-10-25 20:27:00,36.3,-2.0,29.62,NW,325,0.0,0.0,19,0.00,,,0.00,VWS V13.01,2013-10-26 00:27:00,
2013-10-25 20:32:00,36.1,-2.1,29.62,NW,325,0.0,0.0,19,0.00,,,0.00,VWS V13.01,2013-10-26 00:32:00,
2013-10-25 20:37:00,36.1,-2.1,29.62,NW,325,0.0,0.0,19,0.00,,,0.00,VWS V13.01,2013-10-26 00:37:00,
2013-10-25 20:42:00,35.8,-2.4,29.62,NW,325,0.0,0.0,19,0.00,,,0.00,VWS V13.01,2013-10-26 00:42:00,
2013-10-25 20:47:00,35.4,-1.6,29.62,NW,325,0.0,0.0,20,0.00,,,0.00,VWS V13.01,2013-10-26 00:47:00,
2013-10-25 20:52:00,35.4,-1.6,29.62,NW,325,0.0,0.0,20,0.00,,,0.00,VWS V13.01,2013-10-26 00:52:00,
2013-10-25 20:57:00,35.1,0.1,29.62,NW,325,0.0,0.0,22,0.00,,,0.00,VWS V13.01,2013-10-26 00:57:00,
2013-10-25 21:02:00,34.9,-0.1,29.62,NW,325,0.0,0.0,22,0.00,,,0.00,VWS V13.01,2013-10-26 01:02:00,
2013-10-25 21:07:00,34.7,-0.2,29.62,NW,325,0.0,0.0,22,0.00,,,0.00,VWS V13.01,2013-10-26 01:07:00,
2013-10-25 21:12:00,34.5,-0.4,29.62,NW,325,0.0,0.0,22,0.00,,,0.00,VWS V13.01,2013-10-26 01:12:00,
2013-10-25 21:17:00,34.3,-0.6,29.62,NW,325,0.0,0.0,22,0.00,,,0.00,VWS V13.01,2013-10-26 01:17:00,
2013-10-25 21:22:00,34.2,2.0,29.62,NW,325,0.0,0.0,25,0.00,,,0.00,VWS V13.01,2013-10-26 01:22:00,
2013-10-25 21:27:00,33.8,1.7,29.62,NW,325,0.0,0.0,25,0.00,,,0.00,VWS V13.01,2013-10-26 01:27:00,
2013-10-25 21:32:00,33.6,1.6,29.62,NW,325,0.0,0.0,25,0.00,,,0.00,VWS V13.01,2013-10-26 01:32:00,
2013-10-25 21:37:00,33.4,1.4,29.62,NW,325,0.0,0.0,25,0.00,,,0.00,VWS V13.01,2013-10-26 01:37:00,
2013-10-25 21:42:00,33.3,3.7,29.62,NW,325,0.0,2.2,28,0.00,,,0.00,VWS V13.01,2013-10-26 01:42:00,
2013-10-25 21:47:00,33.4,3.8,29.62,NW,325,0.0,0.0,28,0.00,,,0.00,VWS V13.01,2013-10-26 01:47:00,
2013-10-25 21:52:00,33.3,5.2,29.62,NW,325,0.0,0.0,30,0.00,,,0.00,VWS V13.01,2013-10-26 01:52:00,
2013-10-25 21:57:00,33.1,5.0,29.62,NW,325,0.0,0.0,30,0.00,,,0.00,VWS V13.01,2013-10-26 01:57:00,
2013-10-25 22:02:00,33.1,5.0,29.62,NW,325,0.0,0.0,30,0.00,,,0.00,VWS V13.01,2013-10-26 02:02:00,
2013-10-25 22:07:00,32.9,4.9,29.62,NW,325,0.0,0.0,30,0.00,,,0.00,VWS V13.01,2013-10-26 02:07:00,
2013-10-25 22:12:00,32.7,4.7,29.62,NW,325,0.0,0.0,30,0.00,,,0.00,VWS V13.01,2013-10-26 02:12:00,
2013-10-25 22:17:00,32.5,4.6,29.62,NW,325,0.0,0.0,30,0.00,,,0.00,VWS V13.01,2013-10-26 02:17:00,
2013-10-25 22:22:00,32.4,5.1,29.62,NW,325,0.0,0.0,31,0.00,,,0.00,VWS V13.01,2013-10-26 02:22:00,
2013-10-25 22:27:00,32.4,5.1,29.62,NW,325,0.0,0.0,31,0.00,,,0.00,VWS V13.01,2013-10-26 02:27:00,
2013-10-25 22:32:00,32.2,5.0,29.62,NW,325,0.0,0.0,31,0.00,,,0.00,VWS V13.01,2013-10-26 02:32:00,
2013-10-25 22:37:00,32.2,5.0,29.62,NW,325,0.0,0.0,31,0.00,,,0.00,VWS V13.01,2013-10-26 02:37:00,
2013-10-25 22:42:00,32.0,4.8,29.62,NW,325,0.0,0.0,31,0.00,,,0.00,VWS V13.01,2013-10-26 02:42:00,
2013-10-25 22:47:00,31.8,4.6,29.62,NW,325,0.0,0.0,31,0.00,,,0.00,VWS V13.01,2013-10-26 02:47:00,
2013-10-25 22:52:00,31.6,4.5,29.62,NW,325,0.0,0.0,31,0.00,,,0.00,VWS V13.01,2013-10-26 02:52:00,
2013-10-25 22:57:00,31.6,4.5,29.62,NW,325,0.0,0.0,31,0.00,,,0.00,VWS V13.01,2013-10-26 02:57:00,
2013-10-25 23:02:00,31.5,5.0,29.62,NW,325,0.0,0.0,32,0.00,,,0.00,VWS V13.01,2013-10-26 03:02:00,
2013-10-25 23:07:00,31.5,5.0,29.62,NW,325,0.0,0.0,32,0.00,,,0.00,VWS V13.01,2013-10-26 03:07:00,
2013-10-25 23:12:00,31.5,5.7,29.62,NW,325,0.0,2.7,33,0.00,,,0.00,VWS V13.01,2013-10-26 03:12:00,
2013-10-25 23:17:00,31.5,5.7,29.62,NW,325,0.0,0.0,33,0.00,,,0.00,VWS V13.01,2013-10-26 03:17:00,
2013-10-25 23:22:00,31.5,6.3,29.62,NW,325,0.0,2.2,34,0.00,,,0.00,VWS V13.01,2013-10-26 03:22:00,
2013-10-25 23:27:00,31.6,7.1,29.62,NW,325,0.0,0.0,35,0.00,,,0.00,VWS V13.01,2013-10-26 03:27:00,
2013-10-25 23:32:00,31.5,7.0,29.62,NW,325,0.0,0.0,35,0.00,,,0.00,VWS V13.01,2013-10-26 03:32:00,
2013-10-25 23:37:00,31.3,6.8,29.62,NW,325,0.0,0.0,35,0.00,,,0.00,VWS V13.01,2013-10-26 03:37:00,
2013-10-25 23:42:00,31.3,6.8,29.62,NW,325,0.0,0.0,35,0.00,,,0.00,VWS V13.01,2013-10-26 03:42:00,
2013-10-25 23:47:00,31.1,7.3,29.59,NW,325,0.0,0.0,36,0.00,,,0.00,VWS V13.01,2013-10-26 03:47:00,
2013-10-25 23:52:00,31.1,7.3,29.59,NW,325,0.0,0.0,36,0.00,,,0.00,VWS V13.01,2013-10-26 03:52:00,
2013-10-25 23:57:00,30.9,7.1,29.59,NW,325,0.0,0.0,36,0.00,,,0.00,VWS V13.01,2013-10-26 03:57:00,